DW9443 Weather Reports


Display with metric or nautical units.
time (UTC)temp
F
wind
direction
speed
MPH
gust
MPH
rain 1hr
in
rain 24hr
in
rain mn
in
humidity
%
barometer
mb
20180622064939 53 120 6.0 0.0 0.00 0.00 0.00 68 1009.3
20180622063437 53 109 6.0 0.0 0.00 0.00 0.00 67 1009.1
20180622061935 53 96 6.0 0.0 0.00 0.00 0.00 66 1008.8
20180622060437 52 107 6.0 0.0 0.00 0.00 0.00 69 1008.8
20180622054930 53 129 3.0 0.0 0.00 0.00 0.00 67 1008.5
20180622053431 54 117 4.0 0.0 0.00 0.00 0.00 66 1008.5
20180622051927 54 122 5.0 0.0 0.00 0.00 0.00 65 1008.5
20180622050423 54 120 4.0 0.0 0.00 0.00 0.00 64 1008.5
20180622044925 55 136 7.0 0.0 0.00 0.00 0.00 63 1008.3
20180622043421 55 123 3.0 0.0 0.00 0.00 0.00 63 1008.3
20180622041922 55 121 5.0 0.0 0.00 0.00 0.00 64 1008.1
20180622040418 55 123 7.0 0.0 0.00 0.00 0.00 64 1008.1
20180622034917 55 117 4.0 0.0 0.00 0.00 0.00 63 1008.0
20180622033419 56 144 4.0 0.0 0.00 0.00 0.00 62 1008.1
20180622031922 56 113 3.0 0.0 0.00 0.00 0.00 62 1008.0
20180622030414 56 123 5.0 0.0 0.00 0.00 0.00 63 1007.8
20180622024914 55 128 5.0 0.0 0.00 0.00 0.00 67 1007.6
20180622023414 56 159 7.0 0.0 0.00 0.00 0.00 64 1007.8
20180622021913 57 211 2.0 0.0 0.00 0.00 0.00 59 1007.8
20180622020412 57 142 4.0 0.0 0.00 0.00 0.00 61 1007.7
20180622014910 57 92 4.0 0.0 0.00 0.00 0.00 59 1007.6
20180622013410 57 125 4.0 0.0 0.00 0.00 0.00 60 1007.4
20180622011908 58 116 4.0 0.0 0.00 0.00 0.00 60 1007.3
20180622010407 58 100 1.0 0.0 0.00 0.00 0.00 60 1007.2
20180622004907 57 123 1.0 0.0 0.00 0.00 0.00 65 1007.0
20180622003409 56 93 6.0 0.0 0.00 0.00 0.00 70 1006.9
20180622001905 55 114 6.0 0.0 0.00 0.00 0.00 73 1006.9
20180622000405 55 121 8.0 0.0 0.00 0.00 0.00 72 1007.0
20180621234905 56 128 9.0 0.0 0.00 0.00 0.00 71 1007.0
20180621233405 56 127 9.0 0.0 0.00 0.00 0.00 69 1007.0
20180621231902 57 130 7.0 0.0 0.00 0.00 0.00 70 1006.9
20180621230357 57 132 7.0 0.0 0.00 0.00 0.00 70 1006.9
20180621224900 58 120 8.0 0.0 0.00 0.00 0.00 68 1006.7
20180621223354 58 117 4.0 0.0 0.00 0.00 0.00 67 1006.7
20180621221854 59 71 1.0 0.0 0.00 0.00 0.00 74 1006.7
20180621220352 58 286 1.0 0.0 0.00 0.00 0.00 78 1006.6
20180621214857 58 291 0.0 0.0 0.00 0.00 0.00 70 1006.5
20180621213352 57 291 0.0 0.0 0.00 0.00 0.00 73 1006.4
20180621211851 57 291 0.0 0.0 0.00 0.00 0.00 75 1006.2
20180621210348 57 291 0.0 0.0 0.00 0.00 0.00 79 1006.3
20180621204852 56 291 0.0 0.0 0.00 0.00 0.00 78 1006.0
20180621203348 56 290 0.0 0.0 0.00 0.00 0.00 77 1006.0
20180621201849 56 290 3.0 0.0 0.00 0.00 0.00 77 1005.9
20180621200349 56 334 1.0 0.0 0.00 0.00 0.00 75 1006.0
20180621194844 56 335 0.0 0.0 0.00 0.00 0.00 73 1005.8
20180621193348 57 335 1.0 0.0 0.00 0.00 0.00 72 1005.8
20180621191844 57 335 0.0 0.0 0.00 0.00 0.00 73 1005.9
20180621190345 57 335 0.0 0.0 0.00 0.00 0.00 73 1005.7
20180621184842 57 339 0.0 0.0 0.00 0.00 0.00 72 1005.8
20180621183343 57 339 0.0 0.0 0.00 0.00 0.00 72 1005.5
20180621181843 57 339 0.0 0.0 0.00 0.00 0.00 75 1005.4
20180621180341 56 339 0.0 0.0 0.00 0.00 0.00 75 1005.2
20180621174841 56 339 0.0 0.0 0.00 0.00 0.00 75 1005.2
20180621173342 56 339 3.0 0.0 0.00 0.00 0.00 76 1005.1
20180621171839 56 331 0.0 0.0 0.00 0.00 0.00 75 1005.1
20180621170339 56 331 3.0 0.0 0.00 0.00 0.00 73 1004.9
20180621164838 56 328 2.0 0.0 0.00 0.00 0.00 72 1004.9
20180621163337 56 336 4.0 0.0 0.00 0.00 0.00 70 1004.8
20180621161837 56 5 2.0 0.0 0.00 0.00 0.00 71 1004.7
20180621160334 56 355 2.0 0.0 0.00 0.00 0.00 71 1004.7
20180621154837 56 5 2.0 0.0 0.00 0.00 0.00 68 1004.7
20180621153335 56 5 2.0 0.0 0.00 0.00 0.00 68 1004.9
20180621151834 56 10 1.0 0.0 0.00 0.00 0.00 69 1005.2
20180621150335 56 13 1.0 0.0 0.00 0.00 0.00 71 1005.2
20180621144832 56 5 2.0 0.0 0.00 0.00 0.00 71 1004.7
20180621143331 56 347 4.0 0.0 0.00 0.00 0.00 70 1004.7
20180621141827 57 324 1.0 0.0 0.00 0.00 0.00 67 1004.8
20180621140326 58 329 2.0 0.0 0.00 0.00 0.00 63 1005.0
20180621134824 58 11 0.0 0.0 0.00 0.00 0.00 65 1004.9
20180621133327 59 12 1.0 0.0 0.00 0.00 0.00 58 1005.0
20180621131822 58 355 1.0 0.0 0.00 0.00 0.00 65 1004.8
20180621130321 58 355 0.0 0.0 0.00 0.00 0.00 65 1004.9
20180621124821 60 355 0.0 0.0 0.00 0.00 0.00 61 1004.7
20180621123317 60 355 0.0 0.0 0.00 0.00 0.00 56 1004.9
20180621121817 59 355 0.0 0.0 0.00 0.00 0.00 59 1004.9
20180621120319 60 355 0.0 0.0 0.00 0.00 0.00 58 1005.0
20180621114814 60 355 0.0 0.0 0.00 0.00 0.00 57 1005.0
20180621113313 60 355 0.0 0.0 0.00 0.00 0.00 57 1005.2
20180621111813 60 355 0.0 0.0 0.00 0.00 0.00 58 1005.4
20180621110313 59 355 2.0 0.0 0.00 0.00 0.00 59 1005.3
20180621104809 59 315 1.0 0.0 0.00 0.00 0.00 57 1005.3
20180621103308 59 315 0.0 0.0 0.00 0.00 0.00 53 1005.4
20180621101806 60 315 0.0 0.0 0.00 0.00 0.00 57 1005.3
20180621100305 59 315 0.0 0.0 0.00 0.00 0.00 65 1005.4
20180621094802 59 315 0.0 0.0 0.00 0.00 0.00 64 1005.7
20180621093304 59 315 0.0 0.0 0.00 0.00 0.00 65 1005.7
20180621091802 59 315 0.0 0.0 0.00 0.00 0.00 65 1005.9
20180621090302 60 315 0.0 0.0 0.00 0.00 0.00 65 1005.9
20180621084803 59 315 0.0 0.0 0.00 0.00 0.00 65 1005.7
20180621083255 59 312 0.0 0.0 0.00 0.00 0.00 66 1005.5
20180621081754 59 296 2.0 0.0 0.00 0.00 0.00 67 1005.7
20180621080251 59 275 2.0 0.0 0.00 0.00 0.00 67 1005.9
20180621074751 59 239 0.0 0.0 0.00 0.00 0.00 67 1005.9
20180621073250 60 237 1.0 0.0 0.00 0.00 0.00 66 1005.8
20180621071752 61 225 0.0 0.0 0.00 0.00 0.00 63 1006.0
20180621070251 61 226 0.0 0.0 0.00 0.00 0.00 62 1006.0